,,,PA_Meas_PMT16A,,PR_Meas_QMR101_102,,RH_Meas_QMH101,,SR_Meas_QMS101,,TA_Meas_QMH101,,GenWind,,GenWind,
date,time,status,PA,status,PR,status,RH,status,SR,status,TA,status,DirAvg,status,SpdAvg,
2009-09-16, 00:00:04,VALID,1000.42,VALID,0,VALID,90.7772,VALID,0,VALID,22.3161,VALID,46,VALID,0.321094,
2009-09-16, 00:01:04,VALID,1000.41,VALID,0,VALID,90.7391,VALID,0,VALID,22.3161,VALID,46,VALID,0.275391,
2009-09-16, 00:02:04,VALID,1000.4,VALID,0,VALID,90.7543,VALID,0,VALID,22.3161,VALID,46,VALID,0.467187,
2009-09-16, 00:03:04,VALID,1000.37,VALID,0,VALID,90.7009,VALID,0,VALID,22.3356,VALID,46,VALID,0.142969,
2009-09-16, 00:04:04,VALID,1000.37,VALID,0,VALID,90.6857,VALID,0,VALID,22.2966,VALID,46,VALID,0.246875,
2009-09-16, 00:05:04,VALID,1000.36,VALID,0,VALID,90.5636,VALID,0,VALID,22.2771,VALID,46,VALID,0.126563,
2009-09-16, 00:06:04,VALID,1000.37,VALID,0,VALID,90.7467,VALID,0,VALID,22.2771,VALID,46,VALID,0.532422,
2009-09-16, 00:07:04,VALID,1000.37,VALID,0,VALID,90.5636,VALID,0,VALID,22.2576,VALID,46,VALID,0.4,
2009-09-16, 00:08:04,VALID,1000.35,VALID,0,VALID,90.8077,VALID,0,VALID,22.2381,VALID,46,VALID,0.775781,
2009-09-16, 00:09:04,VALID,1000.35,VALID,0,VALID,91.0061,VALID,0,VALID,22.2592,VALID,46,VALID,1.04883,
2009-09-16, 00:10:04,VALID,1000.39,VALID,0,VALID,91.2274,VALID,0,VALID,22.2788,VALID,48,VALID,1.07813,
2009-09-16, 00:11:04,VALID,1000.37,VALID,0,VALID,90.8688,VALID,0,VALID,22.2788,VALID,49,VALID,0.821094,
2009-09-16, 00:12:04,VALID,1000.37,VALID,0,VALID,90.7849,VALID,0,VALID,22.2381,VALID,49,VALID,0.819531,
2009-09-16, 00:13:04,VALID,1000.35,VALID,0,VALID,90.7543,VALID,0,VALID,22.2186,VALID,49,VALID,0.835938,
2009-09-16, 00:14:04,VALID,1000.39,VALID,0,VALID,90.5102,VALID,0,VALID,22.1795,VALID,47,VALID,0.692578,
2009-09-16, 00:15:04,VALID,1000.37,VALID,0,VALID,90.3042,VALID,0,VALID,22.121,VALID,48,VALID,0.257422,
2009-09-16, 00:16:04,VALID,1000.37,VALID,0,VALID,90.3194,VALID,0,VALID,22.043,VALID,48,VALID,0.0878906,
2009-09-16, 00:17:04,VALID,1000.35,VALID,0,VALID,90.6246,VALID,0,VALID,22.004,VALID,48,VALID,0.334766,
2009-09-16, 00:18:04,VALID,1000.36,VALID,0,VALID,90.823,VALID,0,VALID,22.004,VALID,48,VALID,0.0359375,
2009-09-16, 00:19:04,VALID,1000.38,VALID,0,VALID,90.9832,VALID,0,VALID,22.004,VALID,48,VALID,0,
2009-09-16, 00:20:04,VALID,1000.38,VALID,0,VALID,91.09,VALID,0,VALID,22.0057,VALID,48,VALID,0,
2009-09-16, 00:21:04,VALID,1000.38,VALID,0,VALID,91.174,VALID,0,VALID,21.9845,VALID,48,VALID,0.128516,
2009-09-16, 00:22:04,VALID,1000.35,VALID,0,VALID,91.2731,VALID,0,VALID,22.0057,VALID,48,VALID,0.28125,
2009-09-16, 00:23:04,VALID,1000.38,VALID,0,VALID,91.4334,VALID,0,VALID,21.9845,VALID,48,VALID,0.285156,
2009-09-16, 00:24:04,VALID,1000.35,VALID,0,VALID,91.5249,VALID,0,VALID,22.004,VALID,48,VALID,0.448438,
2009-09-16, 00:25:04,VALID,1000.37,VALID,0,VALID,91.4944,VALID,0,VALID,22.0252,VALID,48,VALID,0.515234,
2009-09-16, 00:26:04,VALID,1000.34,VALID,0,VALID,91.3723,VALID,0,VALID,21.9862,VALID,48,VALID,0.521094,
2009-09-16, 00:27:04,VALID,1000.32,VALID,0,VALID,91.3266,VALID,0,VALID,21.9472,VALID,48,VALID,0.404687,
2009-09-16, 00:28:04,VALID,1000.33,VALID,0,VALID,91.3876,VALID,0,VALID,21.8675,VALID,48,VALID,0.514453,
2009-09-16, 00:29:04,VALID,1000.33,VALID,0,VALID,91.8072,VALID,0,VALID,21.8887,VALID,48,VALID,0.750391,
2009-09-16, 00:30:04,VALID,1000.3,VALID,0,VALID,91.9293,VALID,0,VALID,21.9082,VALID,48,VALID,0.96875,
2009-09-16, 00:31:04,VALID,1000.28,VALID,0,VALID,91.7157,VALID,0,VALID,21.8675,VALID,48,VALID,0.937109,
2009-09-16, 00:32:04,VALID,1000.28,VALID,0,VALID,91.1282,VALID,0,VALID,21.809,VALID,48,VALID,0.653125,
2009-09-16, 00:33:04,VALID,1000.28,VALID,0,VALID,90.7925,VALID,0,VALID,21.653,VALID,47,VALID,0.407031,
2009-09-16, 00:34:04,VALID,1000.27,VALID,0,VALID,91.029,VALID,0,VALID,21.5961,VALID,47,VALID,0.580859,
2009-09-16, 00:35:04,VALID,1000.25,VALID,0,VALID,91.4563,VALID,0,VALID,21.5571,VALID,47,VALID,0.676172,
2009-09-16, 00:36:04,VALID,1000.22,VALID,0,VALID,91.6546,VALID,0,VALID,21.5571,VALID,44,VALID,0.796875,
2009-09-16, 00:37:04,VALID,1000.21,VALID,0,VALID,91.8454,VALID,0,VALID,21.536,VALID,44,VALID,0.615234,
2009-09-16, 00:38:04,VALID,1000.2,VALID,0,VALID,91.5402,VALID,0,VALID,21.5165,VALID,31,VALID,0.79375,
2009-09-16, 00:39:04,VALID,1000.19,VALID,0,VALID,91.9369,VALID,0,VALID,21.5181,VALID,27,VALID,0.528125,
2009-09-16, 00:40:04,VALID,1000.17,VALID,0,VALID,91.9598,VALID,0,VALID,21.5181,VALID,25,VALID,0.495703,
2009-09-16, 00:41:04,VALID,1000.14,VALID,0,VALID,92.1734,VALID,0,VALID,21.5165,VALID,22,VALID,0.49375,
2009-09-16, 00:42:04,VALID,1000.11,VALID,0,VALID,92.3031,VALID,0,VALID,21.5555,VALID,21,VALID,0.375,
2009-09-16, 00:43:04,VALID,1000.07,VALID,0,VALID,92.3337,VALID,0,VALID,21.575,VALID,21,VALID,0.228125,
2009-09-16, 00:44:04,VALID,1000.04,VALID,0,VALID,92.2574,VALID,0.112286,VALID,21.614,VALID,21,VALID,0,
2009-09-16, 00:45:04,VALID,1000.03,VALID,0,VALID,92.1887,VALID,0,VALID,21.5945,VALID,21,VALID,0,
2009-09-16, 00:46:04,VALID,1000.01,VALID,0,VALID,92.1124,VALID,0,VALID,21.5945,VALID,21,VALID,0,
2009-09-16, 00:47:04,VALID,999.943,VALID,0,VALID,92.0514,VALID,0,VALID,21.575,VALID,21,VALID,0,
2009-09-16, 00:48:04,VALID,999.929,VALID,0,VALID,92.0666,VALID,0,VALID,21.536,VALID,21,VALID,0,
2009-09-16, 00:49:04,VALID,999.896,VALID,0,VALID,92.1734,VALID,0,VALID,21.5165,VALID,21,VALID,0,
2009-09-16, 00:50:04,VALID,999.854,VALID,0,VALID,92.2574,VALID,0,VALID,21.536,VALID,21,VALID,0.0621094,
2009-09-16, 00:51:04,VALID,999.881,VALID,0,VALID,92.2421,VALID,0,VALID,21.497,VALID,21,VALID,0.524219,
2009-09-16, 00:52:04,VALID,999.852,VALID,0,VALID,92.5397,VALID,0,VALID,21.5165,VALID,36,VALID,0.594922,
2009-09-16, 00:53:04,VALID,999.834,VALID,0,VALID,92.883,VALID,0,VALID,21.575,VALID,36,VALID,0.328516,
2009-09-16, 00:54:04,VALID,999.838,VALID,0,VALID,92.6999,VALID,0,VALID,21.614,VALID,36,VALID,0.382422,
2009-09-16, 00:55:04,VALID,999.879,VALID,0,VALID,92.6236,VALID,0,VALID,21.6335,VALID,36,VALID,0.287891,
2009-09-16, 00:56:04,VALID,999.831,VALID,0,VALID,92.5549,VALID,0,VALID,21.6335,VALID,36,VALID,0.49375,
2009-09-16, 00:57:04,VALID,999.859,VALID,0,VALID,92.4328,VALID,0,VALID,21.614,VALID,36,VALID,0.413672,
2009-09-16, 00:58:04,VALID,999.846,VALID,0,VALID,92.6236,VALID,0,VALID,21.614,VALID,36,VALID,0.164844,
2009-09-16, 00:59:04,VALID,999.863,VALID,0,VALID,92.4939,VALID,0,VALID,21.6335,VALID,36,VALID,0.177344,
2009-09-16, 01:00:04,VALID,999.847,VALID,0,VALID,92.1582,VALID,0,VALID,21.5945,VALID,37,VALID,0.667969,
2009-09-16, 01:01:04,VALID,999.868,VALID,0,VALID,92.8296,VALID,0,VALID,21.6335,VALID,48,VALID,0.602344,
2009-09-16, 01:02:04,VALID,999.88,VALID,0,VALID,92.3413,VALID,0,VALID,21.6335,VALID,57,VALID,0.300391,
2009-09-16, 01:03:05,VALID,999.884,VALID,0,VALID,92.0209,VALID,0,VALID,21.575,VALID,78,VALID,0.573828,
2009-09-16, 01:04:05,VALID,999.848,VALID,0,VALID,92.6465,VALID,0,VALID,21.575,VALID,68,VALID,0.632031,
2009-09-16, 01:05:05,VALID,999.843,VALID,0,VALID,92.5626,VALID,0,VALID,21.5945,VALID,55,VALID,0.853906,
2009-09-16, 01:06:05,VALID,999.812,VALID,0,VALID,92.326,VALID,0,VALID,21.6156,VALID,43,VALID,0.871094,
2009-09-16, 01:07:05,VALID,999.824,VALID,0,VALID,92.4557,VALID,0,VALID,21.5945,VALID,42,VALID,0.687891,
2009-09-16, 01:08:05,VALID,999.807,VALID,0,VALID,92.2116,VALID,0,VALID,21.5555,VALID,39,VALID,0.765625,
2009-09-16, 01:09:05,VALID,999.821,VALID,0,VALID,91.9445,VALID,0,VALID,21.5165,VALID,39,VALID,0.786719,
2009-09-16, 01:10:05,VALID,999.793,VALID,0,VALID,92.4023,VALID,0,VALID,21.536,VALID,34,VALID,0.645312,
2009-09-16, 01:11:05,VALID,999.778,VALID,0,VALID,92.3337,VALID,0,VALID,21.5165,VALID,34,VALID,0.477344,
2009-09-16, 01:12:05,VALID,999.751,VALID,0,VALID,92.1429,VALID,0,VALID,21.5181,VALID,34,VALID,0.261328,
2009-09-16, 01:13:05,VALID,999.695,VALID,0,VALID,92.2116,VALID,0,VALID,21.4775,VALID,34,VALID,0.531641,
2009-09-16, 01:14:05,VALID,999.689,VALID,0,VALID,92.2345,VALID,0,VALID,21.458,VALID,34,VALID,0.747656,
2009-09-16, 01:15:05,VALID,999.655,VALID,0,VALID,92.4557,VALID,0,VALID,21.4775,VALID,34,VALID,0.559766,
2009-09-16, 01:16:05,VALID,999.617,VALID,0,VALID,92.4863,VALID,0,VALID,21.497,VALID,34,VALID,0.688281,
2009-09-16, 01:17:05,VALID,999.584,VALID,0,VALID,92.1124,VALID,0,VALID,21.4791,VALID,34,VALID,0.616406,
2009-09-16, 01:18:05,VALID,999.597,VALID,0,VALID,91.38,VALID,0,VALID,21.3215,VALID,34,VALID,0.530078,
2009-09-16, 01:19:05,VALID,999.584,VALID,0,VALID,91.9064,VALID,0,VALID,21.2825,VALID,34,VALID,0.463672,
2009-09-16, 01:20:05,VALID,999.57,VALID,0,VALID,92.2879,VALID,0,VALID,21.2825,VALID,34,VALID,0.520312,
2009-09-16, 01:21:05,VALID,999.596,VALID,0,VALID,92.41,VALID,0,VALID,21.3215,VALID,27,VALID,0.633203,
2009-09-16, 01:22:05,VALID,999.615,VALID,0,VALID,92.3642,VALID,0,VALID,21.341,VALID,22,VALID,0.347656,
2009-09-16, 01:23:05,VALID,999.578,VALID,0,VALID,92.1048,VALID,0,VALID,21.2825,VALID,22,VALID,0.285156,
2009-09-16, 01:24:05,VALID,999.589,VALID,0,VALID,92.1277,VALID,0,VALID,21.302,VALID,22,VALID,0.598828,
2009-09-16, 01:25:05,VALID,999.603,VALID,0,VALID,92.3337,VALID,0,VALID,21.3231,VALID,21,VALID,0.480859,
2009-09-16, 01:26:05,VALID,999.624,VALID,0,VALID,92.4176,VALID,0,VALID,21.341,VALID,19,VALID,0.425391,
2009-09-16, 01:27:05,VALID,999.597,VALID,0,VALID,92.3718,VALID,0,VALID,21.3605,VALID,19,VALID,0.390234,
2009-09-16, 01:28:05,VALID,999.581,VALID,0,VALID,91.9827,VALID,0,VALID,21.3215,VALID,19,VALID,0.646484,
2009-09-16, 01:29:05,VALID,999.586,VALID,0,VALID,92.2803,VALID,0,VALID,21.3426,VALID,19,VALID,0.548828,
2009-09-16, 01:30:05,VALID,999.595,VALID,0,VALID,92.1582,VALID,0,VALID,21.3036,VALID,19,VALID,0.597266,
2009-09-16, 01:31:05,VALID,999.575,VALID,0,VALID,92.3718,VALID,0,VALID,21.3036,VALID,19,VALID,0.461719,
2009-09-16, 01:32:05,VALID,999.551,VALID,0,VALID,92.3947,VALID,0.112286,VALID,21.3215,VALID,19,VALID,0.294922,
2009-09-16, 01:33:05,VALID,999.572,VALID,0,VALID,92.3108,VALID,0,VALID,21.302,VALID,19,VALID,0.0589844,
2009-09-16, 01:34:05,VALID,999.545,VALID,0,VALID,92.3413,VALID,0,VALID,21.302,VALID,19,VALID,0.0910156,
2009-09-16, 01:35:05,VALID,999.519,VALID,0,VALID,92.4252,VALID,0.112286,VALID,21.302,VALID,19,VALID,0.446094,
2009-09-16, 01:36:05,VALID,999.52,VALID,0,VALID,92.3566,VALID,0,VALID,21.302,VALID,19,VALID,0.293359,
2009-09-16, 01:37:05,VALID,999.536,VALID,0,VALID,92.2345,VALID,0,VALID,21.2825,VALID,19,VALID,0.310937,
2009-09-16, 01:38:05,VALID,999.491,VALID,0,VALID,92.1658,VALID,0,VALID,21.2646,VALID,19,VALID,0.334375,
2009-09-16, 01:39:05,VALID,999.47,VALID,0,VALID,92.0514,VALID,0,VALID,21.2256,VALID,19,VALID,0.448047,
2009-09-16, 01:40:05,VALID,999.483,VALID,0,VALID,91.9903,VALID,0,VALID,21.1671,VALID,37,VALID,0.639453,
2009-09-16, 01:41:05,VALID,999.49,VALID,0,VALID,92.0895,VALID,0,VALID,21.1476,VALID,38,VALID,0.571094,
2009-09-16, 01:42:05,VALID,999.462,VALID,0,VALID,91.9522,VALID,0,VALID,21.107,VALID,38,VALID,0.545703,
2009-09-16, 01:43:05,VALID,999.461,VALID,0,VALID,91.7309,VALID,0,VALID,21.0501,VALID,39,VALID,0.582422,
2009-09-16, 01:44:05,VALID,999.422,VALID,0,VALID,91.7157,VALID,0,VALID,20.99,VALID,39,VALID,0.686719,
2009-09-16, 01:45:05,VALID,999.443,VALID,0,VALID,91.9064,VALID,0.112286,VALID,20.951,VALID,39,VALID,0.717578,
2009-09-16, 01:46:05,VALID,999.398,VALID,0,VALID,91.8988,VALID,0,VALID,20.9315,VALID,39,VALID,0.705859,
2009-09-16, 01:47:05,VALID,999.375,VALID,0,VALID,91.8301,VALID,0,VALID,20.8941,VALID,39,VALID,0.645312,
2009-09-16, 01:48:05,VALID,999.326,VALID,0,VALID,91.8988,VALID,0,VALID,20.834,VALID,39,VALID,0.783594,
2009-09-16, 01:49:05,VALID,999.338,VALID,0,VALID,92.1887,VALID,0,VALID,20.8535,VALID,42,VALID,0.847656,
2009-09-16, 01:50:05,VALID,999.311,VALID,0,VALID,92.2192,VALID,0,VALID,20.8535,VALID,42,VALID,0.720703,
2009-09-16, 01:51:05,VALID,999.281,VALID,0,VALID,91.8454,VALID,0,VALID,20.8161,VALID,42,VALID,0.574219,
2009-09-16, 01:52:05,VALID,999.286,VALID,0,VALID,91.8072,VALID,0,VALID,20.7366,VALID,40,VALID,0.537109,
2009-09-16, 01:53:05,VALID,999.307,VALID,0,VALID,92.1048,VALID,0.112286,VALID,20.7171,VALID,36,VALID,0.46875,
2009-09-16, 01:54:05,VALID,999.286,VALID,0,VALID,92.3947,VALID,0,VALID,20.7366,VALID,24,VALID,0.739844,
2009-09-16, 01:55:05,VALID,999.268,VALID,0,VALID,92.41,VALID,0,VALID,20.756,VALID,22,VALID,0.829687,
2009-09-16, 01:56:05,VALID,999.27,VALID,0,VALID,92.41,VALID,0,VALID,20.7755,VALID,22,VALID,0.646484,
2009-09-16, 01:57:05,VALID,999.236,VALID,0,VALID,92.3413,VALID,0,VALID,20.7771,VALID,21,VALID,0.803516,
2009-09-16, 01:58:05,VALID,999.21,VALID,0,VALID,92.5626,VALID,0,VALID,20.8145,VALID,21,VALID,0.882422,
2009-09-16, 01:59:05,VALID,999.175,VALID,0,VALID,92.6083,VALID,0,VALID,20.834,VALID,21,VALID,1.1125,
2009-09-16, 02:00:05,VALID,999.145,VALID,0,VALID,92.7151,VALID,0,VALID,20.8746,VALID,21,VALID,1.05938,
2009-09-16, 02:01:05,VALID,999.169,VALID,0,VALID,92.3947,VALID,0,VALID,20.8941,VALID,22,VALID,1.02539,
2009-09-16, 02:02:05,VALID,999.145,VALID,0,VALID,92.2192,VALID,0,VALID,20.8535,VALID,23,VALID,0.826172,
2009-09-16, 02:03:05,VALID,999.164,VALID,0,VALID,92.2955,VALID,0,VALID,20.834,VALID,23,VALID,0.627344,
2009-09-16, 02:04:05,VALID,999.137,VALID,0,VALID,92.265,VALID,0,VALID,20.834,VALID,23,VALID,0.287891,
2009-09-16, 02:05:05,VALID,999.153,VALID,0,VALID,92.265,VALID,0,VALID,20.834,VALID,23,VALID,0.373047,
2009-09-16, 02:06:05,VALID,999.163,VALID,0,VALID,92.3566,VALID,0,VALID,20.834,VALID,23,VALID,0.358203,
2009-09-16, 02:07:05,VALID,999.149,VALID,0,VALID,92.6388,VALID,0,VALID,20.8941,VALID,23,VALID,0.572656,
2009-09-16, 02:08:05,VALID,999.152,VALID,0,VALID,92.6541,VALID,0,VALID,20.912,VALID,27,VALID,0.675391,
2009-09-16, 02:09:05,VALID,999.208,VALID,0,VALID,92.471,VALID,0,VALID,20.912,VALID,38,VALID,0.791406,
2009-09-16, 02:10:05,VALID,999.178,VALID,0,VALID,92.1658,VALID,0,VALID,20.8925,VALID,39,VALID,0.793359,
2009-09-16, 02:11:05,VALID,999.193,VALID,0,VALID,92.3566,VALID,0,VALID,20.873,VALID,44,VALID,0.783594,
2009-09-16, 02:12:05,VALID,999.186,VALID,0,VALID,92.2116,VALID,0,VALID,20.873,VALID,49,VALID,0.764063,
2009-09-16, 02:13:05,VALID,999.175,VALID,0,VALID,92.1887,VALID,0,VALID,20.8145,VALID,49,VALID,0.757422,
2009-09-16, 02:14:05,VALID,999.163,VALID,0,VALID,92.2268,VALID,0,VALID,20.8161,VALID,49,VALID,0.813672,
2009-09-16, 02:15:05,VALID,999.163,VALID,0,VALID,91.6088,VALID,0,VALID,20.7171,VALID,43,VALID,0.623828,
2009-09-16, 02:16:05,VALID,999.166,VALID,0,VALID,92.1734,VALID,0.112286,VALID,20.6781,VALID,41,VALID,0.9375,
2009-09-16, 02:17:05,VALID,999.123,VALID,0,VALID,92.3642,VALID,0,VALID,20.6976,VALID,41,VALID,1.02109,
2009-09-16, 02:18:05,VALID,999.109,VALID,0,VALID,92.5168,VALID,0,VALID,20.7576,VALID,41,VALID,0.983984,
2009-09-16, 02:19:05,VALID,999.094,VALID,0,VALID,91.8606,VALID,0,VALID,20.6196,VALID,41,VALID,0.584375,
2009-09-16, 02:20:05,VALID,999.094,VALID,0,VALID,92.0132,VALID,0,VALID,20.5611,VALID,41,VALID,0.536328,
2009-09-16, 02:21:05,VALID,999.05,VALID,0,VALID,92.2345,VALID,0,VALID,20.5416,VALID,41,VALID,0.548047,
2009-09-16, 02:22:05,VALID,999.05,VALID,0,VALID,92.4023,VALID,0,VALID,20.5416,VALID,41,VALID,0.829687,
2009-09-16, 02:23:05,VALID,999.005,VALID,0,VALID,92.7304,VALID,0,VALID,20.5416,VALID,41,VALID,1.09687,
2009-09-16, 02:24:05,VALID,999.01,VALID,0,VALID,92.6236,VALID,0,VALID,20.6016,VALID,45,VALID,1.23594,
2009-09-16, 02:25:05,VALID,999.016,VALID,0,VALID,92.4786,VALID,0,VALID,20.5611,VALID,47,VALID,0.847266,
2009-09-16, 02:26:05,VALID,999.03,VALID,0,VALID,92.3184,VALID,0,VALID,20.5432,VALID,47,VALID,0.715625,
2009-09-16, 02:27:05,VALID,999.058,VALID,0,VALID,92.1048,VALID,0,VALID,20.4831,VALID,47,VALID,0.505859,
2009-09-16, 02:28:05,VALID,999.074,VALID,0,VALID,92.1582,VALID,0,VALID,20.4636,VALID,46,VALID,0.413672,
2009-09-16, 02:29:05,VALID,999.101,VALID,0,VALID,92.2726,VALID,0,VALID,20.4051,VALID,44,VALID,0.580078,
2009-09-16, 02:30:05,VALID,999.129,VALID,0,VALID,92.6236,VALID,0,VALID,20.4246,VALID,40,VALID,0.676562,
2009-09-16, 02:31:05,VALID,999.111,VALID,0,VALID,92.6312,VALID,0,VALID,20.4636,VALID,40,VALID,0.512109,
2009-09-16, 02:32:05,VALID,999.133,VALID,0,VALID,92.4786,VALID,0,VALID,20.4636,VALID,40,VALID,0.6875,
2009-09-16, 02:33:05,VALID,999.142,VALID,0,VALID,92.5931,VALID,0,VALID,20.4847,VALID,36,VALID,0.68125,
2009-09-16, 02:34:05,VALID,999.147,VALID,0,VALID,92.5626,VALID,0,VALID,20.4652,VALID,36,VALID,0.785156,
2009-09-16, 02:35:05,VALID,999.172,VALID,0,VALID,92.5931,VALID,0,VALID,20.4636,VALID,36,VALID,0.803906,
2009-09-16, 02:36:05,VALID,999.154,VALID,0,VALID,92.7991,VALID,0,VALID,20.4847,VALID,36,VALID,0.850391,
2009-09-16, 02:37:05,VALID,999.184,VALID,0,VALID,92.8143,VALID,0,VALID,20.4831,VALID,36,VALID,0.667969,
2009-09-16, 02:38:05,VALID,999.173,VALID,0,VALID,92.8525,VALID,0,VALID,20.5221,VALID,36,VALID,0.603516,
2009-09-16, 02:39:05,VALID,999.154,VALID,0,VALID,92.4634,VALID,0,VALID,20.5026,VALID,36,VALID,0.0441406,
2009-09-16, 02:40:05,VALID,999.159,VALID,0,VALID,92.3489,VALID,0,VALID,20.4441,VALID,36,VALID,0.34375,
2009-09-16, 02:41:05,VALID,999.127,VALID,0,VALID,92.4328,VALID,0,VALID,20.4246,VALID,36,VALID,0.573438,
2009-09-16, 02:42:05,VALID,999.131,VALID,0,VALID,92.4328,VALID,0,VALID,20.4051,VALID,36,VALID,0.157422,
2009-09-16, 02:43:05,VALID,999.079,VALID,0,VALID,92.5244,VALID,0,VALID,20.4051,VALID,36,VALID,0.461719,
2009-09-16, 02:44:05,VALID,999.027,VALID,0,VALID,92.7533,VALID,0,VALID,20.4051,VALID,36,VALID,0.570313,
2009-09-16, 02:45:05,VALID,999.051,VALID,0,VALID,92.7075,VALID,0,VALID,20.4246,VALID,36,VALID,0.527344,
2009-09-16, 02:46:05,VALID,999.026,VALID,0,VALID,92.6465,VALID,0,VALID,20.4262,VALID,44,VALID,0.551953,
2009-09-16, 02:47:05,VALID,999.007,VALID,0,VALID,92.5244,VALID,0,VALID,20.4262,VALID,44,VALID,0.501562,
2009-09-16, 02:48:05,VALID,999.028,VALID,0,VALID,92.5091,VALID,0,VALID,20.3662,VALID,62,VALID,0.672656,
2009-09-16, 02:49:05,VALID,999.03,VALID,0,VALID,92.5091,VALID,0,VALID,20.3872,VALID,63,VALID,0.643359,
2009-09-16, 02:50:05,VALID,998.997,VALID,0,VALID,92.6083,VALID,0,VALID,20.3272,VALID,63,VALID,0.484766,
2009-09-16, 02:51:05,VALID,999.026,VALID,0,VALID,92.738,VALID,0,VALID,20.3677,VALID,63,VALID,0.626172,
2009-09-16, 02:52:05,VALID,999.042,VALID,0,VALID,92.8677,VALID,0,VALID,20.3662,VALID,64,VALID,0.822656,
2009-09-16, 02:53:05,VALID,999.008,VALID,0,VALID,92.9669,VALID,0,VALID,20.4067,VALID,71,VALID,0.733984,
2009-09-16, 02:54:05,VALID,999.004,VALID,0,VALID,92.7075,VALID,0,VALID,20.4051,VALID,71,VALID,0.808984,
2009-09-16, 02:55:05,VALID,998.978,VALID,0,VALID,93.2187,VALID,0,VALID,20.4441,VALID,70,VALID,1.09063,
2009-09-16, 02:56:05,VALID,999.027,VALID,0,VALID,92.9517,VALID,0,VALID,20.5042,VALID,68,VALID,1.14219,
2009-09-16, 02:57:05,VALID,998.997,VALID,0,VALID,92.6007,VALID,0,VALID,20.5042,VALID,68,VALID,0.881641,
2009-09-16, 02:58:05,VALID,999.012,VALID,0,VALID,92.6388,VALID,0,VALID,20.4441,VALID,59,VALID,0.991406,
2009-09-16, 02:59:05,VALID,999.033,VALID,0,VALID,92.7075,VALID,0,VALID,20.4652,VALID,59,VALID,0.724219,
2009-09-16, 03:00:05,VALID,999.061,VALID,0,VALID,92.3947,VALID,0,VALID,20.3856,VALID,59,VALID,0.486328,
2009-09-16, 03:01:05,VALID,999.029,VALID,0,VALID,92.4557,VALID,0,VALID,20.3872,VALID,59,VALID,0.610156,
2009-09-16, 03:02:05,VALID,999.031,VALID,0,VALID,92.7304,VALID,0,VALID,20.3677,VALID,59,VALID,0.925,
2009-09-16, 03:03:05,VALID,999.047,VALID,0,VALID,92.9211,VALID,0,VALID,20.4051,VALID,56,VALID,0.886719,
2009-09-16, 03:04:05,VALID,999.016,VALID,0,VALID,92.8983,VALID,0,VALID,20.4051,VALID,45,VALID,1.29062,
2009-09-16, 03:05:05,VALID,999.017,VALID,0,VALID,92.9059,VALID,0,VALID,20.4636,VALID,44,VALID,1.09375,
2009-09-16, 03:06:05,VALID,999.018,VALID,0,VALID,92.6465,VALID,0.112286,VALID,20.4441,VALID,41,VALID,1.28516,
2009-09-16, 03:07:05,VALID,999.01,VALID,0,VALID,92.3489,VALID,0,VALID,20.4067,VALID,27,VALID,1.09531,
2009-09-16, 03:08:05,VALID,999.034,VALID,0,VALID,92.0666,VALID,0,VALID,20.2672,VALID,17,VALID,1.13281,
2009-09-16, 03:09:05,VALID,999.039,VALID,0,VALID,92.1277,VALID,0,VALID,20.1907,VALID,14,VALID,1.12109,
2009-09-16, 03:10:05,VALID,999.054,VALID,0,VALID,92.5244,VALID,0,VALID,20.1728,VALID,14,VALID,1.10859,
2009-09-16, 03:11:05,VALID,999.026,VALID,0,VALID,92.7762,VALID,0,VALID,20.1517,VALID,14,VALID,1.34609,
2009-09-16, 03:12:05,VALID,999.039,VALID,0,VALID,92.9364,VALID,0,VALID,20.2102,VALID,19,VALID,1.46797,
2009-09-16, 03:13:05,VALID,999.083,VALID,0,VALID,92.6617,VALID,0,VALID,20.2312,VALID,30,VALID,1.22969,
2009-09-16, 03:14:05,VALID,999.069,VALID,0,VALID,92.4252,VALID,0.112286,VALID,20.1907,VALID,18,VALID,1.28008,
2009-09-16, 03:15:05,VALID,999.08,VALID,0,VALID,92.677,VALID,0,VALID,20.2102,VALID,16,VALID,1.15703,
2009-09-16, 03:16:05,VALID,999.07,VALID,0,VALID,92.7609,VALID,0,VALID,20.2702,VALID,16,VALID,0.956641,
2009-09-16, 03:17:05,VALID,999.039,VALID,0,VALID,92.8143,VALID,0,VALID,20.3092,VALID,24,VALID,0.9125,
2009-09-16, 03:18:05,VALID,999.053,VALID,0,VALID,92.7151,VALID,0,VALID,20.3077,VALID,39,VALID,1.00859,
2009-09-16, 03:19:05,VALID,999.066,VALID,0,VALID,92.6388,VALID,0,VALID,20.3467,VALID,43,VALID,0.933984,
2009-09-16, 03:20:05,VALID,999.077,VALID,0,VALID,92.3794,VALID,0,VALID,20.3467,VALID,43,VALID,0.580078,
2009-09-16, 03:21:05,VALID,999.076,VALID,0,VALID,92.2345,VALID,0,VALID,20.3272,VALID,47,VALID,0.344531,
2009-09-16, 03:22:05,VALID,999.083,VALID,0,VALID,92.1582,VALID,0,VALID,20.3092,VALID,47,VALID,0.365234,
2009-09-16, 03:23:05,VALID,999.082,VALID,0,VALID,92.3031,VALID,0,VALID,20.2882,VALID,47,VALID,0.576953,
2009-09-16, 03:24:05,VALID,999.115,VALID,0,VALID,92.4023,VALID,0,VALID,20.2882,VALID,47,VALID,0.708594,
2009-09-16, 03:25:05,VALID,999.073,VALID,0,VALID,92.3642,VALID,0,VALID,20.2882,VALID,47,VALID,0.655078,
2009-09-16, 03:26:05,VALID,999.106,VALID,0,VALID,92.326,VALID,0,VALID,20.3287,VALID,49,VALID,0.591406,
2009-09-16, 03:27:05,VALID,999.079,VALID,0,VALID,92.0971,VALID,0,VALID,20.2687,VALID,49,VALID,0.246094,
2009-09-16, 03:28:05,VALID,999.088,VALID,0,VALID,91.9827,VALID,0,VALID,20.2297,VALID,49,VALID,0.261719,
2009-09-16, 03:29:05,VALID,999.105,VALID,0,VALID,92.0743,VALID,0,VALID,20.1907,VALID,49,VALID,0.125781,
2009-09-16, 03:30:05,VALID,999.101,VALID,0,VALID,92.1582,VALID,0,VALID,20.2117,VALID,49,VALID,0.275781,
2009-09-16, 03:31:05,VALID,999.107,VALID,0,VALID,92.3718,VALID,0,VALID,20.1712,VALID,49,VALID,0.351953,
2009-09-16, 03:32:05,VALID,999.104,VALID,0,VALID,92.738,VALID,0,VALID,20.2297,VALID,52,VALID,0.623828,
2009-09-16, 03:33:05,VALID,999.099,VALID,0,VALID,92.7609,VALID,0,VALID,20.3287,VALID,73,VALID,0.823438,
2009-09-16, 03:34:05,VALID,999.088,VALID,0,VALID,92.5549,VALID,0.112286,VALID,20.3077,VALID,76,VALID,0.867188,
2009-09-16, 03:35:05,VALID,999.1,VALID,0,VALID,92.3871,VALID,0,VALID,20.3077,VALID,81,VALID,0.76875,
2009-09-16, 03:36:05,VALID,999.092,VALID,0,VALID,92.3489,VALID,0,VALID,20.3092,VALID,81,VALID,0.798047,
2009-09-16, 03:37:05,VALID,999.128,VALID,0,VALID,92.7075,VALID,0,VALID,20.3287,VALID,87,VALID,0.850781,
2009-09-16, 03:38:05,VALID,999.113,VALID,0,VALID,93.0966,VALID,0,VALID,20.4051,VALID,87,VALID,0.871875,
2009-09-16, 03:39:05,VALID,999.091,VALID,0,VALID,93.1882,VALID,0,VALID,20.5237,VALID,87,VALID,0.953906,
2009-09-16, 03:40:05,VALID,999.076,VALID,0,VALID,92.8983,VALID,0.112286,VALID,20.5611,VALID,86,VALID,1.00234,
2009-09-16, 03:41:05,VALID,999.066,VALID,0,VALID,92.4634,VALID,0,VALID,20.5416,VALID,74,VALID,0.723437,
2009-09-16, 03:42:05,VALID,999.049,VALID,0,VALID,92.0743,VALID,0,VALID,20.5432,VALID,71,VALID,0.494922,
2009-09-16, 03:43:05,VALID,999.083,VALID,0,VALID,91.9827,VALID,0,VALID,20.4652,VALID,71,VALID,0.461719,
2009-09-16, 03:44:05,VALID,999.086,VALID,0,VALID,92.0514,VALID,0,VALID,20.4067,VALID,71,VALID,0.621875,
2009-09-16, 03:45:05,VALID,999.045,VALID,0,VALID,92.3031,VALID,0,VALID,20.4067,VALID,71,VALID,0.664453,
2009-09-16, 03:46:05,VALID,999.057,VALID,0,VALID,92.3566,VALID,0,VALID,20.4067,VALID,71,VALID,0.665625,